[[{"header":{"parameterUnit":"m.s-1","parameterCategory":1,"la1":30.2991,"la2":30.254,"lo1":-89.0895,"lo2":-89.0444,"dy":0.0017,"dx":0.0017,"nx":28,"ny":28,"refTime":"2026-02-15T03:00:00:Z","depth":0,"parameterNumber":2,"parameterNumberName":"U-component_of_WINDS"},"data":[0,0,0,0,0,0,0,0,0,0,0,0,0,0,0,0,0,0,0,0,0,0,0,0,0,0,0,0,0,0,0,0,0,0,0,0,0,0,0,0,0,0,0,0,0,0,0,0,0,0,0,0,0,0,0,0,0,0,5.209,5.2092,0,5.223,5.2231,5.2233,5.2285,5.2285,5.2284,5.2284,5.2426,5.243,5.2434,0,0,0,0,0,0,0,0,0,0,0,0,0,5.187,5.1874,5.209,5.2092,5.2094,5.2229,5.2231,5.2233,5.2285,5.2285,5.2284,5.2284,5.2424,5.2429,5.2434,0,0,0,0,0,0,0,0,0,0,0,0,0,5.1983,5.1875,5.209,5.2136,5.2141,5.2229,5.2231,5.2234,5.2285,5.2285,5.2284,5.2283,5.2422,5.2429,5.2435,5.2486,0,0,5.2454,5.2457,0,0,0,0,0,0,0,0,5.1976,5.1991,5.2127,5.2133,5.2139,5.2239,5.2206,5.2318,5.2285,5.2231,5.2284,5.2283,5.2364,5.2375,5.2403,5.2493,5.2499,5.2454,5.2458,5.2461,5.2463,0,0,0,0,0,0,0,5.1969,5.1985,5.2145,5.2129,5.2137,5.215,5.2165,5.2227,5.2299,5.2235,5.2239,5.2255,5.2367,5.2396,5.2406,5.2501,5.2454,5.246,5.2464,5.2466,5.2644,5.2645,0,0,0,0,0,0,5.1953,5.1978,5.2141,5.2149,5.2055,5.2154,5.2172,5.2208,5.2299,5.2312,5.2256,5.2257,5.2386,5.2399,5.2411,5.248,5.2461,5.2467,5.247,5.2643,5.2644,5.2645,0,0,0,0,0,0,5.1948,5.1967,5.2135,5.2065,5.2088,5.2159,5.2199,5.2211,5.224,5.2314,5.2327,5.2272,5.2386,5.2403,5.2468,5.2485,5.247,5.2475,5.2642,5.2643,5.2645,5.2615,0,0,0,0,0,0,5.1942,5.1965,5.1985,5.2065,5.2091,5.2189,5.22,5.2214,5.2251,5.2254,5.2333,5.2346,5.2387,5.2458,5.2474,5.2493,5.248,5.2641,5.2643,5.2644,5.2615,5.2615,5.2615,0,0,0,0,0,5.1933,5.197,5.1985,5.2005,5.2117,5.219,5.2205,5.2252,5.2252,5.2273,5.2321,5.2343,5.2481,5.2465,5.2483,5.2504,5.264,5.2642,5.2644,5.2614,5.2615,5.2615,0,0,0,0,0,0,5.1888,5.1981,5.1999,5.2063,5.2118,5.2198,5.2226,5.225,5.2306,5.2307,5.2363,5.238,5.2441,5.2479,5.246,5.2561,5.2562,5.2568,5.2533,5.2534,5.2535,5.2524,5.2485,0,0,0,0,0,5.1886,5.1937,5.2015,5.2064,5.2091,5.2154,5.2187,5.2219,5.2278,5.2301,5.2354,5.2411,5.2467,5.2503,5.2559,5.2621,5.264,5.2645,5.2645,5.2645,5.2649,5.2687,5.2691,5.2652,5.2652,5.2652,0,0,5.1881,5.1938,5.1967,5.2057,5.2103,5.2155,5.2173,5.2227,5.2266,5.2309,5.2375,5.2416,5.2483,5.2547,5.2578,5.2581,5.2665,5.2648,5.2647,5.2652,5.269,5.2694,5.2697,5.2654,5.2654,5.2653,0,0,5.19,5.1947,5.1994,5.2041,5.2112,5.2154,5.2165,5.2243,5.2272,5.2338,5.2373,5.2421,5.2516,5.2563,5.26,5.2639,5.2662,5.2656,5.2658,5.2694,5.2697,5.27,5.2715,5.272,5.266,5.266,5.266,0,5.1884,5.1964,5.2015,5.2068,5.2107,5.215,5.2199,5.2241,5.2326,5.2353,5.2355,5.2477,5.2525,5.2602,5.2612,5.264,5.2655,5.2646,5.2692,5.2696,5.27,5.2715,5.272,5.2659,5.2659,5.2659,5.2659,0,5.1943,5.1998,5.2028,5.211,5.2153,5.2203,5.2262,5.2299,5.2327,5.2369,5.2438,5.2498,5.2568,5.2588,5.2616,5.267,5.267,5.2682,5.2684,5.2701,5.2716,5.2723,5.2657,5.2657,5.2658,5.2658,0,0,5.1935,5.2047,5.2057,5.2096,5.2178,5.2222,5.2275,5.2344,5.2376,5.2433,5.248,5.2561,5.2573,5.2615,5.2649,5.268,5.271,5.2689,5.2691,5.2691,5.2775,5.2766,5.2772,5.2726,5.2727,5.2728,5.277,0,5.1965,5.2062,5.211,5.2186,5.2239,5.2282,5.2328,5.2384,5.2426,5.2477,5.2522,5.258,5.259,5.2616,5.265,5.2699,5.2727,5.2697,5.277,5.2772,5.2752,5.278,5.277,5.2806,5.2776,5.2777,5.2778,0,5.2012,5.2071,5.2152,5.2231,5.2255,5.2296,5.2364,5.2412,5.2477,5.2506,5.2553,5.2587,5.2646,5.2645,5.2727,5.2705,5.2738,5.2768,5.277,5.2779,5.2776,5.2789,5.2818,5.2824,5.2787,5.2787,5.2786,0,5.1999,5.2099,5.2161,5.2193,5.2286,5.2314,5.2354,5.2419,5.2458,5.2518,5.2545,5.261,5.2646,5.2697,5.2748,5.2742,5.2826,5.2829,5.2852,5.285,5.2867,5.2865,5.2902,5.2888,5.2888,5.2888,5.2887,0,5.2027,5.2075,5.2157,5.2195,5.2251,5.2307,5.2361,5.2405,5.2463,5.2511,5.2552,5.2596,5.2661,5.2714,5.2755,5.2818,5.2833,5.2858,5.2868,5.2855,5.2852,5.2877,5.2876,5.2889,5.2889,5.2888,5.2888,0,5.2021,5.2078,5.2149,5.2232,5.2254,5.2292,5.2364,5.2403,5.2448,5.2508,5.2526,5.2595,5.266,5.2716,5.2801,5.2829,5.2894,5.2906,5.2872,5.2877,5.2898,5.2895,5.2952,5.2963,5.2941,5.2941,5.2941,0,5.2036,5.2074,5.2162,5.2198,5.2238,5.2294,5.2335,5.2392,5.2433,5.2512,5.2542,5.261,5.2667,5.2769,5.2827,5.2893,5.2908,5.2923,5.2918,5.2904,5.2909,5.2906,5.2911,5.2923,5.2923,5.2923,5.2923,0,5.2055,5.2082,5.2139,5.2207,5.2255,5.2311,5.2368,5.2395,5.2463,5.2507,5.2574,5.2619,5.2707,5.2774,5.2847,5.2889,5.2918,5.2925,5.2934,5.292,5.2899,5.2911,5.2872,5.2923,5.2923,5.2923,5.2923,5.2923,5.2061,5.2098,5.2167,5.223,5.2279,5.2332,5.2374,5.2425,5.2482,5.2558,5.2589,5.2657,5.2724,5.2825,5.2868,5.2923,5.2927,5.294,5.2943,5.2946,5.2944,5.289,5.2936,5.2936,5.2936,5.2936,5.2937,0,5.2084,5.213,5.2188,5.2268,5.2318,5.2341,5.2406,5.2447,5.2507,5.2567,5.2623,5.2701,5.2768,5.2832,5.2902,5.2934,5.2949,5.2951,5.2949,5.2958,5.2935,5.2921,5.2937,5.2937,5.2937,5.2937,5.2937,5.2937,5.2101,5.2166,5.2201,5.2291,5.2338,5.2406,5.2441,5.2491,5.254,5.2625,5.2681,5.2723,5.2786,5.2861,5.2923,5.2941,5.2965,5.2963,5.2984,5.2961,5.296,5.2959,5.2946,5.2967,5.2967,5.3002,5.3003,5.3003]},{"header":{"parameterUnit":"m.s-1","parameterCategory":1,"la1":30.2991,"la2":30.254,"lo1":-89.0895,"lo2":-89.0444,"dy":0.0017,"dx":0.0017,"nx":28,"ny":28,"refTime":"2026-02-15T03:00:00:Z","depth":0,"parameterNumber":3,"parameterNumberName":"V-component_of_WINDS"},"data":[0,0,0,0,0,0,0,0,0,0,0,0,0,0,0,0,0,0,0,0,0,0,0,0,0,0,0,0,0,0,0,0,0,0,0,0,0,0,0,0,0,0,0,0,0,0,0,0,0,0,0,0,0,0,0,0,0,0,-3.6382,-3.6382,0,-3.6454,-3.6455,-3.6456,-3.6551,-3.6553,-3.6554,-3.6556,-3.6624,-3.6624,-3.6624,0,0,0,0,0,0,0,0,0,0,0,0,0,-3.6323,-3.6324,-3.6381,-3.6382,-3.6383,-3.6454,-3.6455,-3.6456,-3.6551,-3.6553,-3.6555,-3.6557,-3.6623,-3.6624,-3.6624,0,0,0,0,0,0,0,0,0,0,0,0,0,-3.6367,-3.6324,-3.6381,-3.6439,-3.6445,-3.6454,-3.6455,-3.6456,-3.655,-3.6553,-3.6555,-3.6557,-3.6623,-3.6624,-3.6624,-3.6579,0,0,-3.6626,-3.6626,0,0,0,0,0,0,0,0,-3.6364,-3.6369,-3.643,-3.6435,-3.6442,-3.6496,-3.6459,-3.6497,-3.655,-3.651,-3.6556,-3.6559,-3.6579,-3.6583,-3.6591,-3.6583,-3.6585,-3.6626,-3.6626,-3.6626,-3.6626,0,0,0,0,0,0,0,-3.6361,-3.6366,-3.641,-3.6431,-3.6438,-3.6461,-3.647,-3.6467,-3.653,-3.6514,-3.6521,-3.6529,-3.6583,-3.659,-3.6593,-3.6586,-3.6626,-3.6626,-3.6626,-3.6627,-3.6547,-3.6545,0,0,0,0,0,0,-3.635,-3.6363,-3.6408,-3.6412,-3.6409,-3.646,-3.647,-3.6476,-3.653,-3.6541,-3.6527,-3.6533,-3.6589,-3.6593,-3.6596,-3.6548,-3.6626,-3.6627,-3.6627,-3.655,-3.6547,-3.6544,0,0,0,0,0,0,-3.6348,-3.6353,-3.6405,-3.639,-3.6398,-3.6459,-3.6465,-3.6476,-3.6484,-3.654,-3.6551,-3.6523,-3.6591,-3.6596,-3.6584,-3.6551,-3.6627,-3.6627,-3.6553,-3.6549,-3.6546,-3.645,0,0,0,0,0,0,-3.6346,-3.6352,-3.6336,-3.6389,-3.6399,-3.6391,-3.6463,-3.6476,-3.6486,-3.6495,-3.654,-3.655,-3.6593,-3.6583,-3.6584,-3.6553,-3.6628,-3.6556,-3.6551,-3.6547,-3.6456,-3.6443,-3.6433,0,0,0,0,0,-3.6344,-3.6304,-3.6334,-3.6339,-3.638,-3.6389,-3.6395,-3.6447,-3.6483,-3.6467,-3.6503,-3.6548,-3.6556,-3.6581,-3.6583,-3.6552,-3.6558,-3.6552,-3.6547,-3.6461,-3.6446,-3.6433,0,0,0,0,0,0,-3.6241,-3.6312,-3.6346,-3.6322,-3.635,-3.6405,-3.6386,-3.6429,-3.6445,-3.6452,-3.6515,-3.6524,-3.6505,-3.6528,-3.6554,-3.6513,-3.6564,-3.6559,-3.6498,-3.6483,-3.6472,-3.6465,-3.6628,0,0,0,0,0,-3.6217,-3.622,-3.6281,-3.6254,-3.6267,-3.6324,-3.633,-3.6369,-3.6399,-3.641,-3.6445,-3.6471,-3.648,-3.6484,-3.6495,-3.6462,-3.6473,-3.6442,-3.643,-3.6421,-3.6414,-3.6399,-3.6386,-3.6527,-3.6527,-3.6527,0,0,-3.6164,-3.6203,-3.6201,-3.6235,-3.626,-3.6261,-3.6333,-3.633,-3.6331,-3.6409,-3.64,-3.6428,-3.6461,-3.6439,-3.6431,-3.6458,-3.6379,-3.6414,-3.6405,-3.6404,-3.6393,-3.6379,-3.6367,-3.6523,-3.6524,-3.6524,0,0,-3.6069,-3.6099,-3.6081,-3.6106,-3.6146,-3.6186,-3.6181,-3.6232,-3.6254,-3.6248,-3.6307,-3.6309,-3.6323,-3.6344,-3.6357,-3.6276,-3.6318,-3.6278,-3.6215,-3.62,-3.6189,-3.618,-3.615,-3.6138,-3.6273,-3.6272,-3.6272,0,-3.5997,-3.6003,-3.6065,-3.606,-3.6073,-3.6149,-3.613,-3.6152,-3.6191,-3.6198,-3.6229,-3.625,-3.6277,-3.6262,-3.6243,-3.6251,-3.6248,-3.6271,-3.6186,-3.6177,-3.6169,-3.6141,-3.613,-3.6267,-3.6268,-3.6268,-3.6269,0,-3.5913,-3.5916,-3.5897,-3.5937,-3.5949,-3.5937,-3.5997,-3.6001,-3.6041,-3.6077,-3.6071,-3.6108,-3.6128,-3.6129,-3.6165,-3.6119,-3.6135,-3.6175,-3.6226,-3.615,-3.6124,-3.6114,-3.626,-3.6262,-3.6263,-3.6264,0,0,-3.5748,-3.5828,-3.5819,-3.584,-3.5892,-3.5895,-3.5888,-3.5911,-3.5913,-3.594,-3.5935,-3.5947,-3.5986,-3.6001,-3.6042,-3.603,-3.5963,-3.6072,-3.6074,-3.6049,-3.5914,-3.5881,-3.5867,-3.5994,-3.5992,-3.599,-3.5911,0,-3.566,-3.5653,-3.5712,-3.5688,-3.5692,-3.5767,-3.5761,-3.5792,-3.5827,-3.5835,-3.5874,-3.5881,-3.5933,-3.5943,-3.5934,-3.5973,-3.5936,-3.598,-3.5987,-3.5986,-3.5972,-3.5854,-3.5819,-3.5741,-3.5901,-3.59,-3.5899,0,-3.5555,-3.558,-3.5557,-3.5614,-3.5618,-3.5611,-3.5639,-3.5646,-3.5684,-3.5711,-3.573,-3.5779,-3.5776,-3.5829,-3.5825,-3.5853,-3.5861,-3.5881,-3.5879,-3.5878,-3.5934,-3.5848,-3.5718,-3.5705,-3.5884,-3.5885,-3.5886,0,-3.5435,-3.5463,-3.5454,-3.5469,-3.5535,-3.5529,-3.5556,-3.5597,-3.5608,-3.5632,-3.564,-3.5663,-3.5674,-3.5691,-3.5745,-3.5779,-3.5735,-3.5792,-3.5755,-3.5754,-3.5738,-3.5738,-3.5604,-3.5749,-3.5749,-3.5749,-3.5749,0,-3.5328,-3.5311,-3.5401,-3.5394,-3.5379,-3.5448,-3.5429,-3.5464,-3.55,-3.5501,-3.5568,-3.5568,-3.5641,-3.5649,-3.5692,-3.5682,-3.5687,-3.5708,-3.5718,-3.57,-3.5696,-3.5702,-3.5707,-3.5746,-3.5747,-3.5747,-3.5748,0,-3.5189,-3.5249,-3.5243,-3.5309,-3.5325,-3.531,-3.5365,-3.5362,-3.5405,-3.5406,-3.541,-3.5475,-3.5489,-3.5546,-3.5572,-3.5602,-3.5576,-3.56,-3.5563,-3.557,-3.553,-3.5531,-3.5392,-3.5377,-3.5533,-3.5531,-3.553,0,-3.5114,-3.5104,-3.517,-3.5177,-3.5202,-3.5212,-3.5226,-3.5295,-3.5306,-3.5351,-3.5342,-3.5362,-3.5381,-3.5399,-3.5447,-3.5469,-3.5491,-3.5442,-3.5494,-3.5477,-3.5488,-3.5487,-3.5486,-3.5428,-3.5426,-3.5424,-3.5423,0,-3.4976,-3.5008,-3.5026,-3.5055,-3.507,-3.5095,-3.5124,-3.5126,-3.5203,-3.5212,-3.5229,-3.5244,-3.5273,-3.5291,-3.5322,-3.5349,-3.5398,-3.5407,-3.5399,-3.5378,-3.5356,-3.5366,-3.5529,-3.5408,-3.541,-3.5411,-3.5412,-3.5412,-3.4866,-3.486,-3.4907,-3.4925,-3.4956,-3.4983,-3.4984,-3.5029,-3.5044,-3.5075,-3.5116,-3.5126,-3.5168,-3.5215,-3.5239,-3.5248,-3.5275,-3.5264,-3.5261,-3.5256,-3.5246,-3.5359,-3.5254,-3.5255,-3.5255,-3.5255,-3.5256,0,-3.4729,-3.4764,-3.4781,-3.4822,-3.4837,-3.4887,-3.4924,-3.4932,-3.4941,-3.4978,-3.4997,-3.5016,-3.5036,-3.5089,-3.5114,-3.5111,-3.5134,-3.5115,-3.5113,-3.5119,-3.5221,-3.5225,-3.5096,-3.5096,-3.5096,-3.5096,-3.5096,-3.5096,-3.4659,-3.4653,-3.4691,-3.4702,-3.4737,-3.4751,-3.4767,-3.4793,-3.4822,-3.4842,-3.486,-3.4896,-3.4939,-3.4968,-3.4989,-3.5004,-3.5008,-3.4981,-3.5003,-3.5096,-3.5111,-3.5126,-3.5129,-3.4982,-3.4982,-3.49,-3.4899,-3.4898]}]]